Location: Seattle
(47.6064°N, 122.3308°W)
Time: 05:57:27
(UTC-08:00)

N. Korean satellite - Pass Details

Date: 04 December 2022
Orbit: 407 x 441 km, 97.3° (Epoch: 05 February)

Event Time Altitude Azimuth Distance (km) Brightness Sun altitude
Rises 06:16:32 0° 2° (N) 2,525 10.0 -13.5°
Reaches altitude 10° 06:18:48 10° 351° (N) 1,638 9.0 -13.2°
Maximum altitude 06:21:50 28° 291° (WNW) 914 7.3 -12.7°
Drops below altitude 10° 06:24:49 10° 232° (SW) 1,607 8.9 -12.2°
Sets 06:27:00 0° 220° (SW) 2,466 10.0 -11.9°
